Weather Roundup
Issued by NWS

Home | Current Version | Previous Version | Text Only | Print | Product List | Glossary On
Versions: 1 2 3 4 5 6 7 8 9 10 11 12 13 14 15 16 17 18 19 20 21 22 23 24 25 26 27 28 29 30 31 32 33 34 35 36 37 38 39 40 41 42 43 44 45 46 47 48 49 50
000
NZUS93 KARX 081059
HRRWXR

CURRENT HOURLY OBSERVATIONS ACROSS
MUCH OF THE UPPER MISSISSIPPI VALLEY
NATIONAL WEATHER SERVICE LA CROSSE WI
500 AM CST THU DEC 08 2016


...SOUTHEAST MINNESOTA...


CITY           SKY/WX    TMP DP  RH WIND       PRES   REMARKS
ROCHESTER      LGT SNOW  13   9  84 W21       30.18R FOG     WCI  -5
ROCHESTER/MAYO CLOUDY    14  10  84 W18G28    30.18R WCI  -3
WINONA         FLURRIES  19  12  73 W10G17    30.20R WCI   8
AUSTIN         FLURRIES  12   9  85 W16G25    30.21R WCI  -4
ALBERT LEA     FLURRIES  16  12  86 W17G25    30.23S WCI   0
DODGE CENTER   FLURRIES  12   9  85 W21G29    30.18R WCI  -6
PRESTON        LGT SNOW  12   8  82 W18       30.19R WCI  -5
OWATONNA       LGT SNOW  16  10  79 W18       30.22R WCI  -1
FARIBAULT      NOT AVBL
$$

...ELSEWHERE IN MINNESOTA...


CITY           SKY/WX    TMP DP  RH WIND       PRES   REMARKS
MINNEAPOLIS    MOCLDY    17  11  77 W14       30.20R WCI   3
INTNL FALLS    LGT SNOW  19  15  84 NW10      30.14R FOG     WCI   7
DULUTH         FLURRIES  21  17  84 NW13      30.05R WCI   9
RED WING       FLURRIES  18  10  73 W15G23    30.18S WCI   3
REDWOOD FALLS  FLURRIES  16   9  74 NW16G28   30.31R WCI   1
MANKATO        FLURRIES  14  10  84 NW21      30.26R WCI  -4
WORTHINGTON    LGT SNOW   9   5  84 W21G26    30.34R FOG     WCI -11
FAIRMONT       FLURRIES  13   8  81 NW21G32   30.31R WCI  -5
$$

...SOUTHWEST WISCONSIN...


CITY           SKY/WX    TMP DP  RH WIND       PRES   REMARKS
LA CROSSE      CLOUDY    18  10  71 W12       30.19R WCI   5
PRAIRIE DU CHI FLURRIES  15   6  68 W15G23    30.24R WCI  -1
BOSCOBEL       FLURRIES  16   8  71 W8        30.22S WCI   5
LONE ROCK      NOT AVBL
PLATTEVILLE    CLOUDY    14   9  79 W18G24    30.20R WCI  -3
FORT MC COY    FLURRIES  16  11  80 W12G18    30.15S WCI   3
CAMP DOUGLAS   FLURRIES  16  10  79 W13       30.12R WCI   2
MAUSTON-NEW LI CLOUDY    16  10  74 W9G17     30.12R WCI   5
VIROQUA        CLOUDY    13   9  84 W9        30.14R WCI   1
WIS DELLS      FLURRIES  15   9  78 W9        30.12R WCI   3
$$

...ELSEWHERE IN WISCONSIN...


CITY           SKY/WX    TMP DP  RH WIND       PRES   REMARKS
MILWAUKEE      CLOUDY    22  11  62 W16G24    30.10R WCI   8
MADISON        CLOUDY    15   7  70 W10       30.14R WCI   2
GREEN BAY      LGT SNOW  20  14  77 W20       30.03R WCI   4
EAU CLAIRE     LGT SNOW  18  12  79 W12       30.12R WCI   5
BLACK RVR FLS  FLURRIES  16  10  75 W10G18    30.13S WCI   4
MEDFORD        LGT SNOW  13  10  86 W10       30.00S WCI   0
WAUSAU         LGT SNOW  15  11  83 W15       30.01R FOG     WCI   0
WIS RAPIDS     LGT SNOW  16  11  80 W13       30.08R WCI   2
MARSHFIELD     LGT SNOW  14   9  80 W15       30.04R WCI  -1
RICE LAKE      LGT SNOW  18  14  86 W13       30.10R WCI   4
$$

...NORTHEAST IOWA...


CITY           SKY/WX    TMP DP  RH WIND       PRES   REMARKS
WATERLOO       CLEAR     12   4  70 W16G22    30.29R WCI  -5
DUBUQUE        CLOUDY    12   6  77 W23G31    30.22R WCI  -7
DECORAH        CLOUDY    12   7  79 W8G21     30.19S WCI   1
MASON CITY     CLOUDY    11   6  81 W21G28    30.28R WCI  -8
CHARLES CITY   CLOUDY    12   5  73 W15G22    30.26R WCI  -4
OELWEIN        PTCLDY    10   7  85 W18G30    30.26R WCI  -8
$$

...ELSEWHERE IN IOWA...


CITY           SKY/WX    TMP DP  RH WIND       PRES   REMARKS
DES MOINES     PTCLDY    13   4  67 NW18      30.41R WCI  -4
IOWA CITY      MOCLDY    16   7  67 W14       30.35R WCI   2
FORT DODGE     MOCLDY    10   1  67 W17G25    30.36S WCI  -7
MARSHALLTOWN   CLEAR     11   5  77 W22G28    30.34R WCI  -8
CEDAR RAPIDS   CLEAR     12   8  84 W21G28    30.30R WCI  -7
$$

...NORTHERN ILLINOIS...


CITY           SKY/WX    TMP DP  RH WIND       PRES   REMARKS
CHICAGO-OHARE  FLURRIES  21  12  68 W20G28    30.16R WCI   6
CHICAGO-MIDWAY FLURRIES  22  11  62 W17       30.18R WCI   8
MOLINE         PTCLDY    18   8  65 NW21G28   30.30R WCI   1
ROCKFORD       FLURRIES  18   9  68 W20G28    30.20R WCI   2
PEORIA         FLURRIES  19  11  70 W14G22    30.31R WCI   6
$$

NOTE: "FAIR" INDICATES FEW OR NO CLOUDS BELOW 12,000 FEET WITH NO
SIGNIFICANT WEATHER AND/OR OBSTRUCTIONS TO VISIBILITY. WIND
SPEEDS ARE IN MILES-PER-HOUR.




USA.gov is the U.S. government's official web portal to all federal, state and local government web resources and services.